Location: Budapest
(47.4979°N, 19.0402°E)
Time: 06:06:51
(UTC+02:00)

Tiangong 2 - Pass Details

Date: 12 October 2017
Orbit: 388 x 391 km, 42.8° (Epoch: 22 October)

Event Time Altitude Azimuth Distance (km) Brightness Sun altitude
Exits shadow 05:06:49 23° 169° (S) 872 2.8 -19.5°
Maximum altitude 05:07:01 24° 163° (SSE) 868 2.9 -19.5°
Drops below altitude 10° 05:09:39 10° 108° (ESE) 1,422 4.8 -19.1°
Sets 05:11:58 0° 94° (E) 2,280 6.5 -18.7°
